Miscellaneous Local Product
Issued by NWS North Platte, NE

Home | Current Version | Previous Version | Text Only | Print | Product List | Glossary On
Versions: 1 2 3 4 5 6 7 8 9 10 11 12 13 14 15 16 17 18 19 20 21 22 23 24 25 26 27 28 29 30 31 32 33 34 35 36 37 38 39 40 41 42 43 44 45 46 47 48 49 50
000
AXUS43 KLBF 301310
MISLBF


WESTERN AND NORTH CENTRAL NEBRASKA HOURLY WEATHER ROUNDUP
NATIONAL WEATHER SERVICE NORTH PLATTE NE
800 AM CDT TUE JUN 30 2015

***STATIONS NOT REPORTING VARIABLES SUCH AS SKY/WEATHER OR
PRESSURE ARE PROVIDED BY THE NEBRASKA DEPARTMENT OF
ROADS...RAWS...AND APRS NETWORKS...AND ARE NOT UNDER
NATIONAL WEATHER SERVICE QUALITY CONTROL***

...OBSERVATIONS IN AND NEAR THE EASTERN PANHANDLE OF NEBRASKA...

CITY           SKY/WX    TMP DP  RH WIND       PRES   REMARKS
PINE RIDGE     MOSUNNY   65  59  81 CALM      30.01S
CHADRON        MOSUNNY   65  60  84 CALM      30.01S
ALLIANCE       SUNNY     62  58  86 SW3       30.05R
SIDNEY         SUNNY     65  57  75 W8        30.10S
WHITECLAY        N/A     67  58  72 CALM        N/A
CRESCENT LAKE    N/A     70  63  78 CALM        N/A
$$

...OBSERVATIONS IN NORTH CENTRAL NEBRASKA...

CITY           SKY/WX    TMP DP  RH WIND       PRES   REMARKS
VALENTINE      MOSUNNY   67  62  84 W5        29.95F
THEDFORD       CLOUDY    65  62  91 CALM      30.01S
AINSWORTH      PTSUNNY   73  61  64 E9        29.99R
O`NEILL        CLOUDY    69  65  86 E6        29.99S
ORD            MOSUNNY   66  61  84 CALM      29.96R HAZE
BROKEN BOW     PTSUNNY   72  64  76 CALM      30.00S
VALENTINE NWR    N/A     67  60  78 SW7         N/A
SPRINGVIEW       N/A     65  60  85 CALM        N/A
BREWSTER         N/A     74  65  73 W5          N/A
ROSE             N/A     82  73  73 E10         N/A
NEWPORT          N/A     69  65  86 E5          N/A
SARGENT          N/A     64  62  92 CALM        N/A
CHAMBERS         N/A     68  60  76 E3          N/A
EWING            N/A     68  65  90 CALM        N/A
$$

...OBSERVATIONS IN SOUTHWEST NEBRASKA AND FAR NORTHEAST COLORADO...

CITY           SKY/WX    TMP DP  RH WIND       PRES   REMARKS
WRAY           FAIR      65  58  77 W5        30.08S
HOLYOKE        FAIR      64  59  82 CALM      30.07S
IMPERIAL       MOSUNNY   66  59  78 CALM      30.05R
OGALLALA       MOSUNNY   64  61  90 CALM      30.04S
NORTH PLATTE   CLOUDY    65  60  84 CALM      30.01S
MCCOOK         MOSUNNY   66  58  75 W6        30.01R
LEXINGTON        N/A     69  64  83 CALM      30.00R HAZE
PAXTON           N/A     65  62  90 CALM        N/A
GOTHENBURG       N/A     69  58  67 CALM        N/A
CALLAWAY         N/A     71  67  87 CALM        N/A
$$

...NORTH PLATTE AREA...

CITY           SKY/WX    TMP DP  RH WIND       PRES   REMARKS
AIRPORT        CLOUDY    65  60  84 CALM      30.01S
DOWNTOWN         N/A     67  62  84 CALM        N/A
HILLCREST        N/A     68  62  80 CALM        N/A
$$

...SOME WEATHER OBSERVATIONS FROM AROUND THE REGION...

CITY           SKY/WX    TMP DP  RH WIND       PRES   REMARKS
DENVER         PTSUNNY   67  52  58 SW10      30.18R
LARAMIE        MOSUNNY   53  46  77 S6        30.32S
CHEYENNE       MOSUNNY   62  47  57 W10       30.22S
SCOTTSBLUFF    MOSUNNY   64  56  75 NW6       30.07S
RAPID CITY     PTSUNNY   71  60  68 NW7       29.95S
PIERRE         CLOUDY    69  63  81 SE12      29.91R
WINNER         FAIR      73  59  61 SE16      29.95F
SIOUX FALLS    CLOUDY    66  63  90 CALM      29.96R
OMAHA          CLOUDY    70  64  81 N6        29.95R
GRAND ISLAND   SUNNY     73  62  68 SW6       29.97F
KANSAS CITY    CLOUDY    70  66  87 W5        29.95R
WICHITA        PTSUNNY   73  64  73 SW7       29.99R
HAYS           MOSUNNY   72  55  56 CALM      30.01R
LIBERAL        SUNNY     70  57  64 SW6       30.11R
GOODLAND       SUNNY     69  54  58 W5        30.07S
$$



USA.gov is the U.S. government's official web portal to all federal, state and local government web resources and services.